Location: Krasnoyarskiy
(51.1133°N, 71.6497°E)
Time: 23:57:23
(UTC+00:00)

Meteor 2-9 Rocket - Pass Details

Date: 27 September 2022
Orbit: 791 x 895 km, 81.3° (Epoch: 03 December)

Event Time Altitude Azimuth Distance (km) Brightness Sun altitude
Rises 00:08:20 0° 346° (NNW) 3,515 7.4 -10.0°
Reaches altitude 10° 00:10:49 10° 347° (NNW) 2,563 6.7 -9.6°
Maximum altitude 00:16:40 86° 259° (W) 884 4.3 -8.7°
Drops below altitude 10° 00:22:21 10° 172° (S) 2,486 6.7 -7.8°
Sets 00:24:44 0° 172° (S) 3,402 7.4 -7.4°
